sat.trackr.live / text

‹ back to catalog

CE-SAT IIB

NORAD 46818 · 2020-077F

PAYLOAD ACTIVE UNKNOWN

§ Identity

Operator
Country
JPN
Launch date
2020-10-28
Launch site
RLLB
Launch vehicle
Mass (kg)
RCS (m²)

External: N2YO · Heavens-Above · Gunter

§ Orbital elements

Epoch: 2026-07-13T10:09:06.189984Z

Period
88.05 min
Inclination
97.1784°
Eccentricity
0.0007488
Mean motion
16.35354727 rev/d
Perigee alt
173.3 km
Apogee alt
183.1 km
Semi-major
6,556.3 km
B*
4.7012e-4
RAAN
279.7588°
Arg perigee
245.0971°
Mean anomaly
114.9548°
Rev number
31,951

§ Raw data

CE-SAT IIB1 46818U 20077F   26194.42298831  .03477743  23961-5  47012-3 0  99902 46818  97.1784 279.7588 0007488 245.0971 114.9548 16.35354727319510

JSON: /api/v1/satellites/46818 · /tle

For live sub-satellite position, see the globe view (requires WebGL).

§ Visibility from observer

Set your observer location to see the next 7 days of passes ≥ 10°. The values pass through the URL so the page stays shareable.

No JS? Fill the form by hand. The geolocation button needs JavaScript.